x

Buoy B01 - Western Maine Shelf (44030) Wave Buoy

4:04pm - Wed 20th Sep 2017 All times are EDT. -4 hours from GMT.

  • Sig Wave height 6.6ft
  • Peak Period 11s
  • Wind
    16mph, 20mph gusts
  • Sea Temp 60°f
  • 空気 Temp 64°f
  • Sea Pressure 1012.9mb
  • Buoy B01 - Western Maine Shelf
  • Buoy B01 - Western Maine Shelf

More Historic Weather Station data

Upgrade to MSW Pro to gain access to the past 30 days of data for over 8000 Wavebouys and Weather Stations around the globe.

Join

Comparision Forecast

View Surf forecast
   
Wed 09/20 4:04pm 6.5ft 11s 16 20 mph 1012.9mb 60f 64f
3:04pm 6.5ft 11s 16 16 mph 1013.1mb 60f 63f
2:04pm 7ft 11s 18 20 mph 1013.2mb 60f 64f
1:04pm 7ft 11s 18 20 mph 1013.3mb 60f 64f
12:04pm 6.5ft 11s 16 18 mph 1013.9mb 60f 63f
11:04am 6.5ft 11s 18 22 mph 1014.1mb 60f 63f
10:04am 5ft 5s 18 20 mph 1014.4mb 60f 63f
9:04am 7ft 11s 16 20 mph 1014.4mb 60f 63f
8:04am 5.5ft 6s 16 18 mph 1014.4mb 60f 63f
7:04am 7ft 11s 18 22 mph 1014.6mb 60f 63f
6:04am  -   -  16 18 mph 1014.8mb 60f 62f
4:04am 7ft 11s 20 22 mph 1014.5mb 60f 63f
3:04am  -   -  16 20 mph 1015.2mb 60f 62f
2:04am 8ft 11s 20 22 mph 1015.5mb 60f 62f
1:04am 8ft 11s 20 25 mph 1016.1mb 60f 61f
12:04am 7ft 11s 20 25 mph 1016.4mb 60f 61f
Tue 09/19 11:04pm 7ft 11s 18 22 mph 1016.9mb 60f 61f
10:04pm 6.5ft 11s 18 22 mph 1017.4mb 60f 61f
9:04pm 6ft 11s 18 20 mph 1017.5mb 60f 61f
8:04pm  -   -  18 20 mph 1017.8mb 60f 61f
7:04pm  -   -  16 20 mph 1017.7mb 60f 61f
6:04pm 3ft 5s 16 18 mph 1018.2mb 60f 61f
5:04pm 6ft 11s 16 18 mph 1018.5mb 60f 61f
4:04pm 3.5ft 5s 18 22 mph 1018.6mb 61f 61f
3:04pm 6.5ft 11s 18 20 mph 1018.8mb 61f 62f
2:04pm  -   -  18 22 mph 1019.1mb 61f 61f
1:04pm  -   -  18 20 mph 1020mb 61f 61f
12:04pm 6ft 11s 16 18 mph 1020.6mb 61f 61f
11:04am 3.5ft 4s 16 18 mph 1020.9mb 60f 61f
10:04am 3ft 4s 16 18 mph 1021.3mb 60f 61f
9:04am 3.5ft 4s 16 18 mph 1021.2mb 61f 61f
8:04am 2.5ft 4s 16 18 mph 1021.4mb 61f 60f
7:04am 2.5ft 4s 16 18 mph 1021.4mb 62f 61f
6:04am 2.5ft 5s 13 18 mph 1021.5mb 61f 61f
5:04am 2ft 4s 13 16 mph 1021.4mb 62f 61f
4:04am 2ft 4s 13 16 mph 1021.6mb 62f 61f
3:04am 4.5ft 11s 13 16 mph 1021.7mb 62f 61f
2:04am  -   -  13 16 mph 1022mb 62f 62f
1:04am 4.5ft 11s 11 11 mph 1022.3mb 62f 62f
12:04am 3.5ft 11s 9 11 mph 1022.5mb 62f 62f
Mon 09/18 11:04pm 4ft 11s 9 11 mph 1022.5mb 63f 62f
10:04pm 1.6ft 3s 9 11 mph 1022.8mb 63f 62f
9:04pm  -   -  11 13 mph 1022.6mb 63f 62f
8:04pm  -   -  7 9 mph 1022.8mb 63f 63f
7:04pm 3.5ft 11s 9 9 mph 1022.5mb 63f 63f
6:04pm 3.5ft 11s 7 9 mph 1022.1mb 63f 62f
5:04pm 3.5ft 11s 7 7 mph 1022.5mb 62f 63f
4:04pm 3.5ft 8s 7 7 mph 1022.3mb 63f 63f
3:04pm 4ft 11s 7 9 mph 1022.5mb 63f 63f
2:04pm 3ft 11s 9 9 mph 1022.6mb 63f 63f
1:04pm 4.5ft 16s 9 11 mph 1022.3mb 63f 63f
12:04pm 4.5ft 16s 7 9 mph 1022.6mb 63f 63f
11:04am 3.5ft 16s 7 7 mph 1022.5mb 64f 63f
10:04am 3ft 11s 4 4 mph 1022.6mb 63f 63f
9:04am 3ft 11s  -  2 mph 1023.1mb 63f 63f
8:04am 2.5ft 11s 2 4 mph 1022.5mb 62f 63f
7:04am 3ft 11s 7 9 mph 1022mb 62f 63f
6:04am 3.5ft 11s 4 7 mph 1021.7mb 62f 62f
5:04am 3ft 11s 4 7 mph 1021.5mb 62f 62f
4:04am 3.5ft 11s 4 7 mph 1021.5mb 62f 62f
3:04am 3.5ft 11s 4 7 mph 1021.4mb 62f 62f
2:04am 3.5ft 11s 2 2 mph 1021.5mb 62f 62f
1:04am 3.5ft 11s 2 4 mph 1021.4mb 63f 62f
12:04am 3.5ft 11s 4 4 mph 1021.5mb 63f 62f
Sun 09/17 11:04pm 2.5ft 11s 4 4 mph 1021.7mb 63f 62f
10:04pm 3ft 11s 4 4 mph 1021.5mb 62f 62f
9:04pm 3.5ft 11s 9 11 mph 1021.5mb 62f 62f
8:04pm 3ft 11s 7 9 mph 1021.2mb 62f 62f
7:04pm 3ft 11s 9 11 mph 1020.6mb 63f 62f
6:04pm 2.5ft 11s 9 11 mph 1021mb 63f 62f
5:04pm 2.5ft 11s 11 13 mph 1021mb 63f 62f
4:04pm 3ft 11s 11 13 mph 1021.3mb 64f 63f
3:04pm 4ft 11s 9 11 mph 1021.2mb 64f 63f
2:04pm 4.5ft 11s 7 9 mph 1021.3mb 63f 63f
1:04pm 4ft 11s 2 4 mph 1021.7mb 63f 63f
11:04am 3ft 11s 4 4 mph 1022.3mb 63f 62f
10:04am 3ft 11s  -  2 mph 1022.3mb 63f 62f
9:04am 2.5ft 11s 2 4 mph 1022.2mb 63f 61f
8:04am 3.5ft 11s 4 7 mph 1022.1mb 63f 62f
7:04am 2.5ft 11s 9 9 mph 1021.7mb 63f 62f
6:04am 2.5ft 11s 7 7 mph 1021.6mb 62f 62f
5:04am 2.5ft 11s 7 9 mph 1021.2mb 62f 62f
4:04am 2.5ft 11s 7 9 mph 1021mb 62f 61f
3:04am 2.5ft 11s 7 7 mph 1021mb 62f 61f
2:04am 3.5ft 11s 4 4 mph 1021.1mb 63f 61f
1:04am 3ft 11s 4 7 mph 1021.4mb 63f 61f
12:04am 4ft 11s 9 9 mph 1021.3mb 63f 61f
Sat 09/16 11:04pm 3.5ft 11s 9 9 mph 1021.4mb 63f 61f
10:04pm 3.5ft 11s 9 11 mph 1020.9mb 64f 62f